User: anonymous   Login
Location: 22
(39.7117°N, 89.5929°W)
Time: 15:31:23
(UTC-06:00)
Language:

Courier 1B - Orbit

View from above orbital plane
View from above orbital plane
View from above satellite
View from above satellite

Ground track
Ground track

The orbit data is extracted from the following two-line orbital elements,

1 00058U 60013A   24050.89116313  .00000101  00000-0  27625-4 0  9994
2 00058  28.3267 123.9375 0164946  23.7093 337.0953 13.46368941119654
Epoch (UTC): 19 February 2024 21:23:16
Eccentricity: 0.0164946
inclination: 28.3267°
perigee height: 962 km
apogee height: 1209 km
right ascension of ascending node: 123.9375°
argument of perigee: 23.7093°
revolutions per day: 13.46368941
mean anomaly at epoch: 337.0953°
orbit number at epoch: 11965

The dashed part of the orbit path shows where the satellite is in the earth's shadow,  

DLR